| time (UTC) | temp F | wind direction | speed knots | gust knots | rain 1hr in | rain 24hr in | rain mn in | humidity % | barometer mb |
| 20260506175525 | 51 | 192 | 1.7 | 3.5 | 0.00 | 0.00 | 0.00 | 96 | 1016.0 |
| 20260506174525 | 51 | 189 | 1.7 | 3.5 | 0.00 | 0.00 | 0.00 | 96 | 1015.9 |
| 20260506173524 | 51 | 191 | 1.7 | 3.5 | 0.00 | 0.00 | 0.00 | 95 | 1015.8 |
| 20260506172524 | 51 | 194 | 0.9 | 3.5 | 0.00 | 0.00 | 0.00 | 95 | 1015.8 |
| 20260506171525 | 51 | 201 | 0.9 | 3.5 | 0.00 | 0.00 | 0.00 | 95 | 1015.8 |
| 20260506170545 | 51 | 185 | 1.7 | 3.5 | 0.00 | 0.00 | 0.00 | 94 | 1015.8 |
| 20260506165524 | 52 | 153 | 0.0 | 3.5 | 0.00 | 0.00 | 0.00 | 93 | 1015.8 |
| 20260506164524 | 52 | 187 | 1.7 | 3.5 | 0.00 | 0.00 | 0.00 | 92 | 1015.8 |
| 20260506163545 | 52 | 201 | 1.7 | 6.1 | 0.00 | 0.00 | 0.00 | 92 | 1015.8 |
| 20260506162524 | 52 | 241 | 0.9 | 3.5 | 0.00 | 0.00 | 0.00 | 91 | 1015.7 |
| 20260506161536 | 53 | 189 | 1.7 | 3.5 | 0.00 | 0.00 | 0.00 | 91 | 1015.9 |
| 20260506160536 | 53 | 193 | 1.7 | 6.1 | 0.00 | 0.00 | 0.00 | 90 | 1015.9 |
| 20260506155524 | 53 | 180 | 1.7 | 6.1 | 0.00 | 0.00 | 0.00 | 89 | 1015.9 |
| 20260506154525 | 53 | 204 | 1.7 | 3.5 | 0.00 | 0.00 | 0.00 | 89 | 1016.0 |
| 20260506153525 | 53 | 195 | 2.6 | 6.1 | 0.00 | 0.00 | 0.00 | 88 | 1016.0 |
| 20260506152549 | 54 | 194 | 2.6 | 6.1 | 0.00 | 0.00 | 0.00 | 88 | 1016.1 |
| 20260506151525 | 54 | 136 | 2.6 | 6.1 | 0.00 | 0.00 | 0.00 | 88 | 1016.2 |
| 20260506150524 | 54 | 178 | 2.6 | 6.1 | 0.00 | 0.00 | 0.00 | 87 | 1016.2 |
| 20260506145525 | 54 | 176 | 3.5 | 6.1 | 0.00 | 0.00 | 0.00 | 86 | 1016.2 |
| 20260506144524 | 56 | 193 | 3.5 | 6.1 | 0.00 | 0.00 | 0.00 | 83 | 1016.2 |
| 20260506143524 | 56 | 178 | 3.5 | 6.1 | 0.00 | 0.00 | 0.00 | 83 | 1016.2 |
| 20260506142549 | 55 | 139 | 2.6 | 6.1 | 0.00 | 0.00 | 0.00 | 82 | 1016.2 |
| 20260506141525 | 57 | 185 | 2.6 | 6.1 | 0.00 | 0.00 | 0.00 | 80 | 1016.2 |
| 20260506140536 | 56 | 190 | 4.3 | 9.6 | 0.00 | 0.00 | 0.00 | 80 | 1016.2 |
| 20260506135525 | 56 | 155 | 3.5 | 6.1 | 0.00 | 0.00 | 0.00 | 83 | 1016.2 |
| 20260506134536 | 57 | 204 | 3.5 | 7.8 | 0.00 | 0.00 | 0.00 | 80 | 1016.3 |
| 20260506133525 | 57 | 201 | 2.6 | 6.1 | 0.00 | 0.00 | 0.00 | 81 | 1016.3 |
| 20260506132524 | 58 | 191 | 3.5 | 6.1 | 0.00 | 0.00 | 0.00 | 76 | 1016.3 |
| 20260506131545 | 57 | 202 | 3.5 | 7.8 | 0.00 | 0.00 | 0.00 | 77 | 1016.3 |
| 20260506130525 | 55 | 145 | 4.3 | 7.8 | 0.00 | 0.00 | 0.00 | 80 | 1016.3 |
| 20260506125524 | 57 | 144 | 3.5 | 6.1 | 0.00 | 0.00 | 0.00 | 77 | 1016.4 |
| 20260506124608 | 57 | 197 | 3.5 | 6.1 | 0.00 | 0.00 | 0.00 | 78 | 1016.4 |
| 20260506123525 | 58 | 181 | 3.5 | 6.1 | 0.00 | 0.00 | 0.00 | 76 | 1016.5 |
| 20260506122525 | 57 | 156 | 6.1 | 13.0 | 0.00 | 0.00 | 0.00 | 77 | 1016.4 |
| 20260506121525 | 56 | 138 | 3.5 | 7.8 | 0.00 | 0.00 | 0.00 | 77 | 1016.6 |
| 20260506120524 | 58 | 202 | 5.2 | 13.0 | 0.00 | 0.00 | 0.00 | 74 | 1016.7 |
| 20260506115524 | 57 | 188 | 4.3 | 13.0 | 0.00 | 0.00 | 0.00 | 75 | 1016.7 |
| 20260506114525 | 56 | 141 | 5.2 | 13.0 | 0.00 | 0.00 | 0.00 | 78 | 1016.8 |
| 20260506113557 | 56 | 139 | 3.5 | 7.8 | 0.00 | 0.00 | 0.00 | 78 | 1016.8 |
| 20260506112524 | 57 | 175 | 3.5 | 6.1 | 0.00 | 0.00 | 0.00 | 76 | 1016.9 |
| 20260506111525 | 56 | 135 | 3.5 | 6.1 | 0.00 | 0.00 | 0.00 | 80 | 1016.9 |
| 20260506110524 | 57 | 214 | 3.5 | 6.1 | 0.00 | 0.00 | 0.00 | 80 | 1017.0 |
| 20260506105536 | 56 | 149 | 3.5 | 7.8 | 0.00 | 0.00 | 0.00 | 82 | 1017.1 |
| 20260506104524 | 56 | 190 | 4.3 | 7.8 | 0.00 | 0.00 | 0.00 | 82 | 1017.1 |
| 20260506103525 | 55 | 173 | 4.3 | 7.8 | 0.00 | 0.00 | 0.00 | 83 | 1017.1 |
| 20260506102548 | 56 | 190 | 4.3 | 9.6 | 0.00 | 0.00 | 0.00 | 82 | 1017.1 |
| 20260506101525 | 56 | 156 | 3.5 | 6.1 | 0.00 | 0.00 | 0.00 | 83 | 1017.0 |
| 20260506100537 | 56 | 157 | 4.3 | 7.8 | 0.00 | 0.00 | 0.00 | 83 | 1017.1 |
| 20260506095524 | 56 | 195 | 3.5 | 7.8 | 0.00 | 0.00 | 0.00 | 83 | 1017.2 |
| 20260506094545 | 55 | 162 | 3.5 | 7.8 | 0.00 | 0.00 | 0.00 | 85 | 1017.2 |
| 20260506093536 | 55 | 127 | 4.3 | 7.8 | 0.00 | 0.00 | 0.00 | 86 | 1017.2 |
| 20260506092544 | 56 | 157 | 3.5 | 7.8 | 0.00 | 0.00 | 0.00 | 85 | 1017.2 |
| 20260506091525 | 56 | 212 | 2.6 | 7.8 | 0.00 | 0.00 | 0.00 | 84 | 1017.1 |
| 20260506090524 | 56 | 189 | 2.6 | 7.8 | 0.00 | 0.00 | 0.00 | 84 | 1017.1 |
| 20260506085524 | 56 | 202 | 4.3 | 7.8 | 0.00 | 0.00 | 0.00 | 84 | 1017.1 |
| 20260506084525 | 56 | 177 | 4.3 | 7.8 | 0.00 | 0.00 | 0.00 | 85 | 1016.9 |
| 20260506083524 | 55 | 203 | 4.3 | 9.6 | 0.00 | 0.00 | 0.00 | 85 | 1016.9 |
| 20260506082545 | 56 | 181 | 3.5 | 7.8 | 0.00 | 0.00 | 0.00 | 85 | 1016.8 |
| 20260506081525 | 55 | 148 | 3.5 | 7.8 | 0.00 | 0.00 | 0.00 | 87 | 1016.6 |
| 20260506080524 | 54 | 153 | 3.5 | 7.8 | 0.00 | 0.00 | 0.00 | 88 | 1016.5 |
| 20260506073524 | 56 | 190 | 4.3 | 7.8 | 0.00 | 0.00 | 0.00 | 84 | 1016.3 |
| 20260506072524 | 57 | 211 | 2.6 | 6.1 | 0.00 | 0.00 | 0.00 | 84 | 1016.2 |
| 20260506071524 | 56 | 184 | 2.6 | 7.8 | 0.00 | 0.00 | 0.00 | 84 | 1016.2 |
| 20260506070537 | 55 | 190 | 3.5 | 7.8 | 0.00 | 0.00 | 0.00 | 84 | 1016.1 |
| 20260506061525 | 55 | 194 | 4.3 | 6.1 | 0.00 | 0.00 | 0.00 | 85 | 1016.0 |
| 20260506060525 | 54 | 156 | 3.5 | 6.1 | 0.00 | 0.00 | 0.00 | 88 | 1016.0 |
| 20260506050537 | 53 | 134 | 4.3 | 7.8 | 0.00 | 0.00 | 0.00 | 86 | 1015.5 |
| 20260506044537 | 53 | 110 | 4.3 | 6.1 | 0.00 | 0.00 | 0.00 | 83 | 1015.2 |
| 20260506043548 | 52 | 113 | 5.2 | 7.8 | 0.00 | 0.00 | 0.00 | 80 | 1015.2 |
| 20260506042525 | 52 | 110 | 4.3 | 6.1 | 0.00 | 0.00 | 0.00 | 87 | 1015.0 |
| 20260506041537 | 53 | 113 | 3.5 | 6.1 | 0.00 | 0.00 | 0.00 | 66 | 1014.9 |
| 20260506040524 | 55 | 225 | 0.0 | 1.7 | 0.00 | 0.00 | 0.00 | 62 | 1014.8 |
| 20260506035525 | 54 | 0.0 | 0.0 | 0.00 | 0.00 | 0.00 | 73 | 1014.7 | |
| 20260506034524 | 51 | 0.0 | 0.0 | 0.00 | 0.00 | 0.00 | 82 | 1014.6 | |
| 20260506033525 | 48 | 0.0 | 0.0 | 0.00 | 0.00 | 0.00 | 94 | 1014.6 | |
| 20260506032524 | 45 | 0.0 | 0.0 | 0.00 | 0.00 | 0.00 | 99 | 1014.6 | |
| 20260506031524 | 43 | 0.0 | 0.0 | 0.00 | 0.00 | 0.00 | 99 | 1014.5 | |
| 20260506030525 | 40 | 0.0 | 0.0 | 0.00 | 0.00 | 0.00 | 98 | 1014.5 | |
| 20260506025524 | 41 | 0.0 | 0.0 | 0.00 | 0.00 | 0.00 | 98 | 1014.4 | |
| 20260506024525 | 40 | 0.0 | 0.0 | 0.00 | 0.00 | 0.00 | 98 | 1014.3 | |
| 20260506023525 | 40 | 0.0 | 0.0 | 0.00 | 0.00 | 0.00 | 97 | 1014.3 | |
| 20260506022524 | 39 | 0.0 | 0.0 | 0.00 | 0.00 | 0.00 | 96 | 1014.3 | |
| 20260506021525 | 40 | 0.0 | 0.0 | 0.00 | 0.00 | 0.00 | 96 | 1014.3 | |
| 20260506020537 | 40 | 0.0 | 0.0 | 0.00 | 0.00 | 0.00 | 96 | 1014.3 | |
| 20260506015524 | 40 | 0.0 | 0.0 | 0.00 | 0.00 | 0.00 | 94 | 1014.3 | |
| 20260506014525 | 41 | 0.0 | 0.0 | 0.00 | 0.00 | 0.00 | 94 | 1014.3 | |
| 20260506013537 | 41 | 0.0 | 0.0 | 0.00 | 0.00 | 0.00 | 92 | 1014.3 | |
| 20260506012537 | 41 | 0.0 | 0.0 | 0.00 | 0.00 | 0.00 | 91 | 1014.3 | |
| 20260506011524 | 42 | 0.0 | 0.0 | 0.00 | 0.00 | 0.00 | 89 | 1014.3 | |
| 20260506010524 | 43 | 0.0 | 0.0 | 0.00 | 0.00 | 0.00 | 86 | 1014.3 | |
| 20260506005525 | 43 | 0.0 | 0.0 | 0.00 | 0.00 | 0.00 | 88 | 1014.3 | |
| 20260506004525 | 42 | 0.0 | 0.0 | 0.00 | 0.00 | 0.00 | 88 | 1014.3 | |
| 20260506003525 | 42 | 0.0 | 0.0 | 0.00 | 0.00 | 0.00 | 91 | 1014.4 | |
| 20260506002525 | 43 | 0.0 | 0.0 | 0.00 | 0.00 | 0.00 | 89 | 1014.5 | |
| 20260506001524 | 44 | 0.0 | 0.0 | 0.00 | 0.00 | 0.00 | 84 | 1014.5 | |
| 20260506000537 | 45 | 0.0 | 0.0 | 0.00 | 0.00 | 0.00 | 79 | 1014.6 | |
| 20260505235524 | 46 | 0.0 | 0.0 | 0.00 | 0.00 | 0.00 | 76 | 1014.6 | |
| 20260505234536 | 46 | 0.0 | 0.0 | 0.00 | 0.00 | 0.00 | 77 | 1014.6 | |
| 20260505233536 | 46 | 0.0 | 0.0 | 0.00 | 0.00 | 0.00 | 78 | 1014.7 | |
| 20260505232525 | 46 | 0.0 | 0.0 | 0.00 | 0.00 | 0.00 | 81 | 1014.9 | |
| 20260505231524 | 43 | 0.0 | 0.0 | 0.00 | 0.00 | 0.00 | 98 | 1015.0 | |
| 20260505230525 | 42 | 0.0 | 0.0 | 0.00 | 0.00 | 0.00 | 99 | 1015.0 | |
| 20260505225524 | 42 | 0.0 | 0.0 | 0.00 | 0.00 | 0.00 | 99 | 1015.0 | |
| 20260505224545 | 43 | 0.0 | 0.0 | 0.00 | 0.00 | 0.00 | 99 | 1015.1 | |
| 20260505223524 | 43 | 0.0 | 0.0 | 0.00 | 0.00 | 0.00 | 99 | 1015.3 | |
| 20260505222545 | 43 | 0.0 | 0.0 | 0.00 | 0.00 | 0.00 | 98 | 1015.3 | |
| 20260505221524 | 43 | 0.0 | 0.0 | 0.00 | 0.00 | 0.00 | 98 | 1015.4 | |
| 20260505220537 | 43 | 0.0 | 0.0 | 0.00 | 0.00 | 0.00 | 98 | 1015.4 | |
| 20260505215525 | 44 | 0.0 | 0.0 | 0.00 | 0.00 | 0.00 | 99 | 1015.5 | |
| 20260505214524 | 43 | 0.0 | 0.0 | 0.00 | 0.00 | 0.00 | 98 | 1015.5 | |
| 20260505213525 | 44 | 0.0 | 0.0 | 0.00 | 0.00 | 0.00 | 98 | 1015.6 | |
| 20260505212524 | 44 | 0.0 | 0.0 | 0.00 | 0.00 | 0.00 | 97 | 1015.6 | |
| 20260505211536 | 45 | 0.0 | 0.0 | 0.00 | 0.00 | 0.00 | 97 | 1015.7 | |
| 20260505210524 | 45 | 0.0 | 0.0 | 0.00 | 0.00 | 0.00 | 96 | 1015.7 | |
| 20260505205524 | 46 | 0.0 | 0.0 | 0.00 | 0.00 | 0.00 | 96 | 1015.8 | |
| 20260505204544 | 46 | 0.0 | 0.0 | 0.00 | 0.00 | 0.00 | 96 | 1015.8 | |
| 20260505203524 | 46 | 0.0 | 0.0 | 0.00 | 0.00 | 0.00 | 94 | 1015.8 | |
| 20260505202524 | 47 | 0.0 | 0.0 | 0.00 | 0.00 | 0.00 | 93 | 1015.8 | |
| 20260505201545 | 48 | 0.0 | 0.0 | 0.00 | 0.00 | 0.00 | 91 | 1015.8 | |
| 20260505200537 | 49 | 0.0 | 0.0 | 0.00 | 0.00 | 0.00 | 89 | 1015.8 | |
| 20260505195524 | 49 | 0.0 | 0.0 | 0.00 | 0.00 | 0.00 | 88 | 1015.8 | |
| 20260505194524 | 49 | 225 | 0.0 | 1.7 | 0.00 | 0.00 | 0.00 | 90 | 1015.8 |
| 20260505193525 | 49 | 0.0 | 0.0 | 0.00 | 0.00 | 0.00 | 93 | 1015.8 | |
| 20260505192524 | 49 | 225 | 0.0 | 1.7 | 0.00 | 0.00 | 0.00 | 95 | 1015.8 |
| 20260505191524 | 49 | 225 | 0.0 | 1.7 | 0.00 | 0.00 | 0.00 | 97 | 1015.8 |
| 20260505190525 | 49 | 225 | 0.0 | 1.7 | 0.00 | 0.00 | 0.00 | 96 | 1015.7 |
| 20260505185549 | 49 | 0.0 | 0.0 | 0.00 | 0.00 | 0.00 | 96 | 1015.7 | |
| 20260505184524 | 49 | 0.0 | 0.0 | 0.00 | 0.00 | 0.00 | 95 | 1015.7 | |
| 20260505183524 | 49 | 225 | 0.9 | 1.7 | 0.00 | 0.00 | 0.00 | 96 | 1015.7 |
| 20260505182525 | 49 | 225 | 0.0 | 1.7 | 0.00 | 0.00 | 0.00 | 96 | 1015.5 |
| 20260505181525 | 49 | 225 | 0.0 | 1.7 | 0.00 | 0.00 | 0.00 | 96 | 1015.5 |
| 20260505180556 | 50 | 0.0 | 0.0 | 0.00 | 0.00 | 0.00 | 95 | 1015.4 |